contact:dominique.lefevre@mio.osupytheas.fr, maurice.libes@osupytheas.fr, didier.mallarino@osupytheas.fr
Project:EMSO http://www.emso-fr.org/EMSO-France
Depth: 2436.0 m
Title:EMSO Ligure Ouest : Data MII capteur MICROCAT
DateTime_Computer,Latitude,Longitude,Temperature,Conductivity,Pressure,DateTime_Instrument
DateTime_Computer,Latitude,Longitude,degC,S m-1,dbar,DateTime_Instrument
2020-07-14T00:00:08Z,42.805,6.029,13.2973,4.59974,2470.147,2020-7-14T02:00:54Z
2020-07-14T00:03:11Z,42.805,6.029,13.2971,4.59975,2470.133,2020-7-14T02:03:58Z
2020-07-14T00:06:14Z,42.805,6.029,13.2973,4.59975,2470.133,2020-7-14T02:07:01Z
2020-07-14T00:09:17Z,42.805,6.029,13.2973,4.59976,2470.11,2020-7-14T02:10:04Z
2020-07-14T00:12:21Z,42.805,6.029,13.2973,4.59975,2470.133,2020-7-14T02:13:07Z
2020-07-14T00:15:24Z,42.805,6.029,13.2972,4.59974,2470.11,2020-7-14T02:16:11Z
2020-07-14T00:18:27Z,42.805,6.029,13.2975,4.59974,2470.133,2020-7-14T02:19:14Z
2020-07-14T00:21:31Z,42.805,6.029,13.2969,4.59976,2470.087,2020-7-14T02:22:17Z
2020-07-14T00:24:34Z,42.805,6.029,13.2971,4.59976,2470.11,2020-7-14T02:25:20Z
2020-07-14T00:27:37Z,42.805,6.029,13.2975,4.59976,2470.171,2020-7-14T02:28:24Z
2020-07-14T00:30:40Z,42.805,6.029,13.2974,4.59976,2470.133,2020-7-14T02:31:27Z
2020-07-14T00:33:44Z,42.805,6.029,13.2971,4.59975,2470.133,2020-7-14T02:34:30Z
2020-07-14T00:36:47Z,42.805,6.029,13.2971,4.59974,2470.171,2020-7-14T02:37:33Z
2020-07-14T00:39:50Z,42.805,6.029,13.2974,4.59976,2470.133,2020-7-14T02:40:37Z
2020-07-14T00:42:53Z,42.805,6.029,13.2973,4.59975,2470.147,2020-7-14T02:43:40Z
2020-07-14T00:45:57Z,42.805,6.029,13.2971,4.59977,2470.133,2020-7-14T02:46:43Z
2020-07-14T00:49:00Z,42.805,6.029,13.2969,4.59976,2470.156,2020-7-14T02:49:47Z
2020-07-14T00:52:03Z,42.805,6.029,13.2972,4.59974,2470.156,2020-7-14T02:52:50Z
2020-07-14T00:55:07Z,42.805,6.029,13.2968,4.59976,2470.156,2020-7-14T02:55:53Z
2020-07-14T00:58:10Z,42.805,6.029,13.2974,4.59975,2470.133,2020-7-14T02:58:57Z
2020-07-14T01:01:13Z,42.805,6.029,13.2969,4.59976,2470.147,2020-7-14T03:02:00Z
2020-07-14T01:04:16Z,42.805,6.029,13.2969,4.59975,2470.156,2020-7-14T03:05:03Z
2020-07-14T01:07:20Z,42.805,6.029,13.2973,4.59975,2470.156,2020-7-14T03:08:06Z
2020-07-14T01:10:23Z,42.805,6.029,13.2973,4.59976,2470.133,2020-7-14T03:11:09Z
2020-07-14T01:13:26Z,42.805,6.029,13.2974,4.59976,2470.124,2020-7-14T03:14:13Z
2020-07-14T01:16:29Z,42.805,6.029,13.2972,4.59975,2470.156,2020-7-14T03:17:16Z
2020-07-14T01:19:32Z,42.805,6.029,13.2972,4.59976,2470.147,2020-7-14T03:20:19Z
2020-07-14T01:22:36Z,42.805,6.029,13.2976,4.59976,2470.133,2020-7-14T03:23:22Z
2020-07-14T01:25:39Z,42.805,6.029,13.2973,4.59976,2470.133,2020-7-14T03:26:26Z
2020-07-14T01:28:42Z,42.805,6.029,13.2971,4.59974,2470.133,2020-7-14T03:29:29Z
2020-07-14T01:31:45Z,42.805,6.029,13.2971,4.59976,2470.156,2020-7-14T03:32:32Z
2020-07-14T01:34:49Z,42.805,6.029,13.2971,4.59975,2470.147,2020-7-14T03:35:35Z
2020-07-14T01:37:52Z,42.805,6.029,13.2971,4.59976,2470.156,2020-7-14T03:38:39Z
2020-07-14T01:40:55Z,42.805,6.029,13.2971,4.59975,2470.171,2020-7-14T03:41:42Z
2020-07-14T01:43:58Z,42.805,6.029,13.2972,4.59976,2470.147,2020-7-14T03:44:45Z
2020-07-14T01:47:02Z,42.805,6.029,13.2976,4.59976,2470.147,2020-7-14T03:47:48Z
2020-07-14T01:50:05Z,42.805,6.029,13.2974,4.59975,2470.171,2020-7-14T03:50:51Z
2020-07-14T01:53:08Z,42.805,6.029,13.2973,4.59976,2470.156,2020-7-14T03:53:55Z
2020-07-14T01:56:11Z,42.805,6.029,13.2971,4.59975,2470.18,2020-7-14T03:56:58Z
2020-07-14T01:59:15Z,42.805,6.029,13.2976,4.59974,2470.133,2020-7-14T04:00:01Z
2020-07-14T02:02:18Z,42.805,6.029,13.2974,4.59976,2470.133,2020-7-14T04:03:05Z
2020-07-14T02:05:21Z,42.805,6.029,13.2974,4.59975,2470.147,2020-7-14T04:06:08Z
2020-07-14T02:08:24Z,42.805,6.029,13.2974,4.59975,2470.124,2020-7-14T04:09:11Z
2020-07-14T02:11:28Z,42.805,6.029,13.2973,4.59975,2470.156,2020-7-14T04:12:14Z
2020-07-14T02:14:31Z,42.805,6.029,13.2971,4.59976,2470.147,2020-7-14T04:15:17Z
2020-07-14T02:17:34Z,42.805,6.029,13.2972,4.59975,2470.147,2020-7-14T04:18:21Z
2020-07-14T02:20:37Z,42.805,6.029,13.2974,4.59975,2470.133,2020-7-14T04:21:24Z
2020-07-14T02:23:40Z,42.805,6.029,13.2970,4.59974,2470.133,2020-7-14T04:24:27Z
2020-07-14T02:26:44Z,42.805,6.029,13.2974,4.59975,2470.147,2020-7-14T04:27:30Z
2020-07-14T02:29:47Z,42.805,6.029,13.2973,4.59977,2470.133,2020-7-14T04:30:34Z
2020-07-14T02:32:50Z,42.805,6.029,13.2972,4.59975,2470.171,2020-7-14T04:33:37Z
2020-07-14T02:35:53Z,42.805,6.029,13.2971,4.59975,2470.156,2020-7-14T04:36:40Z
2020-07-14T02:38:57Z,42.805,6.029,13.2974,4.59976,2470.156,2020-7-14T04:39:43Z
2020-07-14T02:42:00Z,42.805,6.029,13.2971,4.59974,2470.156,2020-7-14T04:42:47Z
2020-07-14T02:45:03Z,42.805,6.029,13.2971,4.59975,2470.133,2020-7-14T04:45:50Z
2020-07-14T02:48:06Z,42.805,6.029,13.2973,4.59976,2470.156,2020-7-14T04:48:53Z
2020-07-14T02:51:10Z,42.805,6.029,13.2971,4.59975,2470.147,2020-7-14T04:51:56Z
2020-07-14T02:54:13Z,42.805,6.029,13.2974,4.59975,2470.147,2020-7-14T04:55:00Z
2020-07-14T02:57:16Z,42.805,6.029,13.2974,4.59975,2470.133,2020-7-14T04:58:03Z
2020-07-14T03:00:20Z,42.805,6.029,13.2972,4.59975,2470.133,2020-7-14T05:01:06Z
2020-07-14T03:03:23Z,42.805,6.029,13.2971,4.59975,2470.147,2020-7-14T05:04:09Z
2020-07-14T03:06:26Z,42.805,6.029,13.2970,4.59975,2470.147,2020-7-14T05:07:13Z
2020-07-14T03:09:29Z,42.805,6.029,13.2974,4.59976,2470.1,2020-7-14T05:10:16Z
2020-07-14T03:12:32Z,42.805,6.029,13.2972,4.59975,2470.124,2020-7-14T05:13:19Z
2020-07-14T03:15:36Z,42.805,6.029,13.2971,4.59974,2470.11,2020-7-14T05:16:22Z
2020-07-14T03:18:39Z,42.805,6.029,13.2973,4.59975,2470.11,2020-7-14T05:19:25Z
2020-07-14T03:21:42Z,42.805,6.029,13.2971,4.59975,2470.11,2020-7-14T05:22:29Z
2020-07-14T03:24:45Z,42.805,6.029,13.2976,4.59975,2470.133,2020-7-14T05:25:32Z
2020-07-14T03:27:48Z,42.805,6.029,13.2975,4.59974,2470.133,2020-7-14T05:28:35Z
2020-07-14T03:30:52Z,42.805,6.029,13.2975,4.59975,2470.124,2020-7-14T05:31:38Z
2020-07-14T03:33:55Z,42.805,6.029,13.2973,4.59975,2470.11,2020-7-14T05:34:41Z
2020-07-14T03:36:58Z,42.805,6.029,13.2971,4.59974,2470.11,2020-7-14T05:37:45Z
2020-07-14T03:40:01Z,42.805,6.029,13.2973,4.59974,2470.124,2020-7-14T05:40:48Z
2020-07-14T03:43:05Z,42.805,6.029,13.2973,4.59975,2470.133,2020-7-14T05:43:51Z
2020-07-14T03:46:08Z,42.805,6.029,13.2972,4.59975,2470.11,2020-7-14T05:46:55Z
2020-07-14T03:49:11Z,42.805,6.029,13.2974,4.59976,2470.11,2020-7-14T05:49:58Z
2020-07-14T03:52:14Z,42.805,6.029,13.2974,4.59974,2470.133,2020-7-14T05:53:01Z
2020-07-14T03:55:18Z,42.805,6.029,13.2974,4.59975,2470.11,2020-7-14T05:56:04Z
2020-07-14T03:58:21Z,42.805,6.029,13.2974,4.59975,2470.133,2020-7-14T05:59:07Z
2020-07-14T04:01:24Z,42.805,6.029,13.2971,4.59975,2470.11,2020-7-14T06:02:11Z
2020-07-14T04:04:27Z,42.805,6.029,13.2971,4.59974,2470.11,2020-7-14T06:05:14Z
2020-07-14T04:07:31Z,42.805,6.029,13.2972,4.59974,2470.124,2020-7-14T06:08:17Z
2020-07-14T04:10:34Z,42.805,6.029,13.2968,4.59974,2470.133,2020-7-14T06:11:20Z
2020-07-14T04:13:37Z,42.805,6.029,13.2968,4.59975,2470.087,2020-7-14T06:14:24Z
2020-07-14T04:16:40Z,42.805,6.029,13.2974,4.59975,2470.11,2020-7-14T06:17:27Z
2020-07-14T04:19:43Z,42.805,6.029,13.2969,4.59974,2470.11,2020-7-14T06:20:30Z
2020-07-14T04:22:47Z,42.805,6.029,13.2974,4.59973,2470.133,2020-7-14T06:23:34Z
2020-07-14T04:25:50Z,42.805,6.029,13.2972,4.59975,2470.11,2020-7-14T06:26:37Z
2020-07-14T04:28:54Z,42.805,6.029,13.2974,4.59974,2470.1,2020-7-14T06:29:40Z
2020-07-14T04:31:57Z,42.805,6.029,13.2971,4.59975,2470.1,2020-7-14T06:32:44Z
2020-07-14T04:35:00Z,42.805,6.029,13.2970,4.59975,2470.1,2020-7-14T06:35:47Z
2020-07-14T04:38:03Z,42.805,6.029,13.2973,4.59975,2470.1,2020-7-14T06:38:50Z
2020-07-14T04:41:07Z,42.805,6.029,13.2974,4.59975,2470.1,2020-7-14T06:41:53Z
2020-07-14T04:44:10Z,42.805,6.029,13.2975,4.59975,2470.087,2020-7-14T06:44:56Z
2020-07-14T04:47:13Z,42.805,6.029,13.2971,4.59974,2470.063,2020-7-14T06:48:00Z
2020-07-14T04:50:16Z,42.805,6.029,13.2973,4.59975,2470.11,2020-7-14T06:51:03Z
2020-07-14T04:53:19Z,42.805,6.029,13.2973,4.59976,2470.077,2020-7-14T06:54:06Z
2020-07-14T04:56:23Z,42.805,6.029,13.2973,4.59976,2470.063,2020-7-14T06:57:09Z
2020-07-14T04:59:26Z,42.805,6.029,13.2977,4.59974,2470.147,2020-7-14T07:00:13Z
2020-07-14T05:02:29Z,42.805,6.029,13.2972,4.59973,2470.087,2020-7-14T07:03:16Z
2020-07-14T05:05:32Z,42.805,6.029,13.2971,4.59974,2470.077,2020-7-14T07:06:19Z
2020-07-14T05:08:36Z,42.805,6.029,13.2971,4.59974,2470.063,2020-7-14T07:09:22Z
2020-07-14T05:11:39Z,42.805,6.029,13.2971,4.59973,2470.1,2020-7-14T07:12:25Z
2020-07-14T05:14:42Z,42.805,6.029,13.2970,4.59975,2470.063,2020-7-14T07:15:29Z
2020-07-14T05:17:45Z,42.805,6.029,13.2968,4.59974,2470.1,2020-7-14T07:18:32Z
2020-07-14T05:20:49Z,42.805,6.029,13.2973,4.59973,2470.1,2020-7-14T07:21:35Z
2020-07-14T05:23:52Z,42.805,6.029,13.2973,4.59974,2470.1,2020-7-14T07:24:38Z
2020-07-14T05:26:55Z,42.805,6.029,13.2974,4.59974,2470.11,2020-7-14T07:27:42Z
2020-07-14T05:29:58Z,42.805,6.029,13.2972,4.59975,2470.096,2020-7-14T07:30:45Z
2020-07-14T05:33:01Z,42.805,6.029,13.2975,4.59973,2470.087,2020-7-14T07:33:48Z
2020-07-14T05:36:05Z,42.805,6.029,13.2971,4.59975,2470.087,2020-7-14T07:36:51Z
2020-07-14T05:39:08Z,42.805,6.029,13.2971,4.59976,2470.11,2020-7-14T07:39:54Z
2020-07-14T05:42:11Z,42.805,6.029,13.2972,4.59975,2470.087,2020-7-14T07:42:58Z
2020-07-14T05:45:14Z,42.805,6.029,13.2973,4.59974,2470.087,2020-7-14T07:46:01Z
2020-07-14T05:48:18Z,42.805,6.029,13.2970,4.59975,2470.147,2020-7-14T07:49:04Z
2020-07-14T05:51:21Z,42.805,6.029,13.2971,4.59975,2470.087,2020-7-14T07:52:07Z
2020-07-14T05:54:24Z,42.805,6.029,13.2971,4.59974,2470.124,2020-7-14T07:55:11Z
2020-07-14T05:57:27Z,42.805,6.029,13.2973,4.59974,2470.1,2020-7-14T07:58:14Z
2020-07-14T06:00:30Z,42.805,6.029,13.2971,4.59975,2470.077,2020-7-14T08:01:17Z
2020-07-14T06:03:34Z,42.805,6.029,13.2972,4.59974,2470.1,2020-7-14T08:04:20Z
2020-07-14T06:06:37Z,42.805,6.029,13.2975,4.59973,2470.087,2020-7-14T08:07:24Z
2020-07-14T06:09:40Z,42.805,6.029,13.2969,4.59974,2470.063,2020-7-14T08:10:27Z
2020-07-14T06:12:44Z,42.805,6.029,13.2973,4.59974,2470.1,2020-7-14T08:13:30Z
2020-07-14T06:15:47Z,42.805,6.029,13.2973,4.59974,2470.087,2020-7-14T08:16:33Z
2020-07-14T06:18:50Z,42.805,6.029,13.2973,4.59975,2470.063,2020-7-14T08:19:37Z
2020-07-14T06:21:53Z,42.805,6.029,13.2971,4.59974,2470.063,2020-7-14T08:22:40Z
2020-07-14T06:24:57Z,42.805,6.029,13.2971,4.59975,2470.053,2020-7-14T08:25:43Z
2020-07-14T06:28:00Z,42.805,6.029,13.2971,4.59975,2470.077,2020-7-14T08:28:46Z
2020-07-14T06:31:03Z,42.805,6.029,13.2976,4.59975,2470.063,2020-7-14T08:31:50Z
2020-07-14T06:34:06Z,42.805,6.029,13.2970,4.59973,2470.063,2020-7-14T08:34:53Z
2020-07-14T06:37:10Z,42.805,6.029,13.2971,4.59974,2470.04,2020-7-14T08:37:56Z
2020-07-14T06:40:13Z,42.805,6.029,13.2975,4.59974,2470.053,2020-7-14T08:40:59Z
2020-07-14T06:43:16Z,42.805,6.029,13.2976,4.59975,2470.063,2020-7-14T08:44:03Z
2020-07-14T06:46:19Z,42.805,6.029,13.2972,4.59975,2470.124,2020-7-14T08:47:06Z
2020-07-14T06:49:22Z,42.805,6.029,13.2973,4.59976,2470.1,2020-7-14T08:50:09Z
2020-07-14T06:52:26Z,42.805,6.029,13.2976,4.59975,2470.063,2020-7-14T08:53:12Z
2020-07-14T06:55:29Z,42.805,6.029,13.2974,4.59974,2470.087,2020-7-14T08:56:16Z
2020-07-14T06:58:32Z,42.805,6.029,13.2975,4.59976,2470.063,2020-7-14T08:59:19Z
2020-07-14T07:01:35Z,42.805,6.029,13.2968,4.59975,2470.017,2020-7-14T09:02:22Z
2020-07-14T07:04:39Z,42.805,6.029,13.2974,4.59975,2470.063,2020-7-14T09:05:25Z
2020-07-14T07:07:42Z,42.805,6.029,13.2975,4.59974,2470.053,2020-7-14T09:08:29Z
2020-07-14T07:10:45Z,42.805,6.029,13.2973,4.59975,2470.04,2020-7-14T09:11:32Z
2020-07-14T07:13:48Z,42.805,6.029,13.2974,4.59974,2470.063,2020-7-14T09:14:35Z
2020-07-14T07:16:52Z,42.805,6.029,13.2974,4.59973,2470.053,2020-7-14T09:17:38Z
2020-07-14T07:19:55Z,42.805,6.029,13.2972,4.59975,2470.053,2020-7-14T09:20:42Z
2020-07-14T07:22:58Z,42.805,6.029,13.2974,4.59974,2470.063,2020-7-14T09:23:45Z
2020-07-14T07:26:01Z,42.805,6.029,13.2973,4.59975,2470.04,2020-7-14T09:26:48Z
2020-07-14T07:29:05Z,42.805,6.029,13.2972,4.59974,2470.063,2020-7-14T09:29:51Z
2020-07-14T07:32:08Z,42.805,6.029,13.2971,4.59975,2470.017,2020-7-14T09:32:55Z
2020-07-14T07:35:11Z,42.805,6.029,13.2972,4.59974,2470.077,2020-7-14T09:35:58Z
2020-07-14T07:38:14Z,42.805,6.029,13.2972,4.59974,2470.03,2020-7-14T09:39:01Z
2020-07-14T07:41:18Z,42.805,6.029,13.2976,4.59974,2470.04,2020-7-14T09:42:04Z
2020-07-14T07:44:21Z,42.805,6.029,13.2974,4.59975,2470.053,2020-7-14T09:45:07Z
2020-07-14T07:47:24Z,42.805,6.029,13.2975,4.59975,2470.04,2020-7-14T09:48:11Z
2020-07-14T07:50:27Z,42.805,6.029,13.2974,4.59975,2470.063,2020-7-14T09:51:14Z
2020-07-14T07:53:31Z,42.805,6.029,13.2976,4.59974,2470.03,2020-7-14T09:54:17Z
2020-07-14T07:56:34Z,42.805,6.029,13.2971,4.59975,2470.007,2020-7-14T09:57:20Z
2020-07-14T07:59:37Z,42.805,6.029,13.2974,4.59974,2470.053,2020-7-14T10:00:24Z
2020-07-14T08:02:40Z,42.805,6.029,13.2975,4.59976,2470.04,2020-7-14T10:03:27Z
2020-07-14T08:05:43Z,42.805,6.029,13.2975,4.59975,2470.03,2020-7-14T10:06:30Z
2020-07-14T08:08:47Z,42.805,6.029,13.2975,4.59974,2470.053,2020-7-14T10:09:33Z
2020-07-14T08:11:50Z,42.805,6.029,13.2972,4.59974,2470.04,2020-7-14T10:12:37Z
2020-07-14T08:14:53Z,42.805,6.029,13.2974,4.59974,2470.017,2020-7-14T10:15:40Z
2020-07-14T08:17:56Z,42.805,6.029,13.2974,4.59973,2470.04,2020-7-14T10:18:43Z
2020-07-14T08:21:00Z,42.805,6.029,13.2971,4.59974,2470.063,2020-7-14T10:21:46Z
2020-07-14T08:24:03Z,42.805,6.029,13.2970,4.59974,2470.04,2020-7-14T10:24:50Z
2020-07-14T08:27:06Z,42.805,6.029,13.2972,4.59974,2469.993,2020-7-14T10:27:53Z
2020-07-14T08:30:09Z,42.805,6.029,13.2972,4.59974,2470.063,2020-7-14T10:30:56Z
2020-07-14T08:33:13Z,42.805,6.029,13.2972,4.59974,2470.017,2020-7-14T10:33:59Z
2020-07-14T08:36:16Z,42.805,6.029,13.2968,4.59974,2470.017,2020-7-14T10:37:03Z
2020-07-14T08:39:19Z,42.805,6.029,13.2973,4.59974,2470.063,2020-7-14T10:40:06Z
2020-07-14T08:42:22Z,42.805,6.029,13.2974,4.59974,2470.04,2020-7-14T10:43:09Z
2020-07-14T08:45:26Z,42.805,6.029,13.2971,4.59976,2470.03,2020-7-14T10:46:12Z
2020-07-14T08:48:29Z,42.805,6.029,13.2976,4.59974,2470.053,2020-7-14T10:49:16Z
2020-07-14T08:51:32Z,42.805,6.029,13.2974,4.59974,2470.03,2020-7-14T10:52:19Z
2020-07-14T08:54:35Z,42.805,6.029,13.2972,4.59975,2470.03,2020-7-14T10:55:22Z
2020-07-14T08:57:39Z,42.805,6.029,13.2972,4.59974,2470.017,2020-7-14T10:58:25Z
2020-07-14T09:00:42Z,42.805,6.029,13.2973,4.59974,2469.993,2020-7-14T11:01:29Z
2020-07-14T09:03:45Z,42.805,6.029,13.2974,4.59973,2470.017,2020-7-14T11:04:32Z
2020-07-14T09:06:48Z,42.805,6.029,13.2975,4.59975,2470.03,2020-7-14T11:07:35Z
2020-07-14T09:09:51Z,42.805,6.029,13.2971,4.59974,2470.017,2020-7-14T11:10:38Z
2020-07-14T09:12:55Z,42.805,6.029,13.2976,4.59974,2470.017,2020-7-14T11:13:41Z
2020-07-14T09:15:58Z,42.805,6.029,13.2972,4.59975,2470.017,2020-7-14T11:16:45Z
2020-07-14T09:19:01Z,42.805,6.029,13.2970,4.59975,2469.993,2020-7-14T11:19:48Z
2020-07-14T09:22:04Z,42.805,6.029,13.2970,4.59975,2470.03,2020-7-14T11:22:51Z
2020-07-14T09:25:08Z,42.805,6.029,13.2971,4.59974,2470.04,2020-7-14T11:25:55Z
2020-07-14T09:28:11Z,42.805,6.029,13.2976,4.59974,2470.017,2020-7-14T11:28:58Z
2020-07-14T09:31:15Z,42.805,6.029,13.2971,4.59976,2470.053,2020-7-14T11:32:01Z
2020-07-14T09:34:18Z,42.805,6.029,13.2979,4.59975,2470.04,2020-7-14T11:35:04Z
2020-07-14T09:37:21Z,42.805,6.029,13.2975,4.59975,2470.053,2020-7-14T11:38:08Z
2020-07-14T09:40:24Z,42.805,6.029,13.2974,4.59974,2470.017,2020-7-14T11:41:11Z
2020-07-14T09:43:28Z,42.805,6.029,13.2972,4.59974,2470.053,2020-7-14T11:44:14Z
2020-07-14T09:46:31Z,42.805,6.029,13.2972,4.59974,2470.04,2020-7-14T11:47:18Z
2020-07-14T09:49:34Z,42.805,6.029,13.2972,4.59973,2470.017,2020-7-14T11:50:21Z
2020-07-14T09:52:37Z,42.805,6.029,13.2969,4.59974,2470.017,2020-7-14T11:53:24Z
2020-07-14T09:55:41Z,42.805,6.029,13.2974,4.59973,2470.04,2020-7-14T11:56:27Z
2020-07-14T09:58:44Z,42.805,6.029,13.2971,4.59974,2470.053,2020-7-14T11:59:30Z
2020-07-14T10:01:47Z,42.805,6.029,13.2973,4.59973,2470.04,2020-7-14T12:02:34Z
2020-07-14T10:04:50Z,42.805,6.029,13.2968,4.59975,2470.007,2020-7-14T12:05:37Z
2020-07-14T10:07:54Z,42.805,6.029,13.2975,4.59975,2470.063,2020-7-14T12:08:40Z
2020-07-14T10:10:57Z,42.805,6.029,13.2968,4.59975,2470.053,2020-7-14T12:11:43Z
2020-07-14T10:14:00Z,42.805,6.029,13.2974,4.59975,2470.04,2020-7-14T12:14:47Z
2020-07-14T10:17:03Z,42.805,6.029,13.2974,4.59975,2470.053,2020-7-14T12:17:50Z
2020-07-14T10:20:07Z,42.805,6.029,13.2974,4.59976,2470.063,2020-7-14T12:20:53Z
2020-07-14T10:23:10Z,42.805,6.029,13.2971,4.59974,2470.04,2020-7-14T12:23:56Z
2020-07-14T10:26:13Z,42.805,6.029,13.2974,4.59976,2470.063,2020-7-14T12:27:00Z
2020-07-14T10:29:16Z,42.805,6.029,13.2975,4.59976,2470.04,2020-7-14T12:30:03Z
2020-07-14T10:32:19Z,42.805,6.029,13.2971,4.59975,2470.04,2020-7-14T12:33:06Z
2020-07-14T10:35:23Z,42.805,6.029,13.2974,4.59974,2470.04,2020-7-14T12:36:09Z
2020-07-14T10:38:26Z,42.805,6.029,13.2974,4.59975,2470.049,2020-7-14T12:39:13Z
2020-07-14T10:41:29Z,42.805,6.029,13.2976,4.59975,2470.017,2020-7-14T12:42:16Z
2020-07-14T10:44:33Z,42.805,6.029,13.2975,4.59975,2470.053,2020-7-14T12:45:19Z
2020-07-14T10:47:36Z,42.805,6.029,13.2974,4.59975,2470.04,2020-7-14T12:48:22Z
2020-07-14T10:50:39Z,42.805,6.029,13.2974,4.59973,2470.053,2020-7-14T12:51:26Z
2020-07-14T10:53:42Z,42.805,6.029,13.2974,4.59975,2470.053,2020-7-14T12:54:29Z
2020-07-14T10:56:46Z,42.805,6.029,13.2973,4.59976,2470.077,2020-7-14T12:57:32Z
2020-07-14T10:59:49Z,42.805,6.029,13.2972,4.59976,2470.053,2020-7-14T13:00:35Z
2020-07-14T11:02:52Z,42.805,6.029,13.2970,4.59976,2470.04,2020-7-14T13:03:39Z
2020-07-14T11:05:55Z,42.805,6.029,13.2972,4.59974,2470.04,2020-7-14T13:06:42Z
2020-07-14T11:08:59Z,42.805,6.029,13.2972,4.59976,2470.053,2020-7-14T13:09:45Z
2020-07-14T11:12:02Z,42.805,6.029,13.2974,4.59975,2470.053,2020-7-14T13:12:48Z
2020-07-14T11:15:05Z,42.805,6.029,13.2972,4.59976,2470.087,2020-7-14T13:15:52Z
2020-07-14T11:18:08Z,42.805,6.029,13.2974,4.59975,2470.053,2020-7-14T13:18:55Z
2020-07-14T11:21:11Z,42.805,6.029,13.2976,4.59975,2470.077,2020-7-14T13:21:58Z
2020-07-14T11:24:14Z,42.805,6.029,13.2972,4.59975,2470.063,2020-7-14T13:25:01Z
2020-07-14T11:27:18Z,42.805,6.029,13.2971,4.59975,2470.1,2020-7-14T13:28:04Z
2020-07-14T11:30:21Z,42.805,6.029,13.2975,4.59975,2470.04,2020-7-14T13:31:08Z
2020-07-14T11:33:24Z,42.805,6.029,13.2971,4.59974,2470.063,2020-7-14T13:34:11Z
2020-07-14T11:36:27Z,42.805,6.029,13.2971,4.59975,2470.063,2020-7-14T13:37:14Z
2020-07-14T11:39:31Z,42.805,6.029,13.2972,4.59974,2470.077,2020-7-14T13:40:17Z
2020-07-14T11:42:34Z,42.805,6.029,13.2974,4.59976,2470.053,2020-7-14T13:43:21Z
2020-07-14T11:45:37Z,42.805,6.029,13.2975,4.59976,2470.053,2020-7-14T13:46:24Z
2020-07-14T11:48:41Z,42.805,6.029,13.2973,4.59975,2470.063,2020-7-14T13:49:27Z
2020-07-14T11:51:44Z,42.805,6.029,13.2975,4.59977,2470.077,2020-7-14T13:52:30Z
2020-07-14T11:54:47Z,42.805,6.029,13.2968,4.59976,2470.063,2020-7-14T13:55:34Z
2020-07-14T11:57:50Z,42.805,6.029,13.2975,4.59975,2470.077,2020-7-14T13:58:37Z
2020-07-14T12:00:53Z,42.805,6.029,13.2975,4.59978,2470.063,2020-7-14T14:01:40Z
2020-07-14T12:03:57Z,42.805,6.029,13.2974,4.59975,2470.087,2020-7-14T14:04:43Z
2020-07-14T12:07:00Z,42.805,6.029,13.2972,4.59976,2470.063,2020-7-14T14:07:47Z
2020-07-14T12:10:03Z,42.805,6.029,13.2973,4.59975,2470.077,2020-7-14T14:10:50Z
2020-07-14T12:13:06Z,42.805,6.029,13.2974,4.59976,2470.04,2020-7-14T14:13:53Z
2020-07-14T12:16:10Z,42.805,6.029,13.2971,4.59976,2470.063,2020-7-14T14:16:56Z
2020-07-14T12:19:13Z,42.805,6.029,13.2974,4.59976,2470.063,2020-7-14T14:20:00Z
2020-07-14T12:22:16Z,42.805,6.029,13.2974,4.59976,2470.1,2020-7-14T14:23:03Z
2020-07-14T12:25:19Z,42.805,6.029,13.2968,4.59975,2470.053,2020-7-14T14:26:06Z
2020-07-14T12:28:22Z,42.805,6.029,13.2972,4.59976,2470.124,2020-7-14T14:29:09Z
2020-07-14T12:31:26Z,42.805,6.029,13.2975,4.59976,2470.1,2020-7-14T14:32:12Z
2020-07-14T12:34:29Z,42.805,6.029,13.2971,4.59975,2470.1,2020-7-14T14:35:16Z
2020-07-14T12:37:32Z,42.805,6.029,13.2975,4.59978,2470.1,2020-7-14T14:38:19Z
2020-07-14T12:40:35Z,42.805,6.029,13.2974,4.59976,2470.11,2020-7-14T14:41:22Z
2020-07-14T12:43:39Z,42.805,6.029,13.2971,4.59975,2470.063,2020-7-14T14:44:25Z
2020-07-14T12:46:42Z,42.805,6.029,13.2975,4.59975,2470.1,2020-7-14T14:47:28Z
2020-07-14T12:49:45Z,42.805,6.029,13.2974,4.59975,2470.077,2020-7-14T14:50:32Z
2020-07-14T12:52:48Z,42.805,6.029,13.2974,4.59976,2470.063,2020-7-14T14:53:35Z
2020-07-14T12:55:52Z,42.805,6.029,13.2976,4.59975,2470.077,2020-7-14T14:56:38Z
2020-07-14T12:58:55Z,42.805,6.029,13.2971,4.59974,2470.11,2020-7-14T14:59:41Z
2020-07-14T13:01:58Z,42.805,6.029,13.2974,4.59976,2470.11,2020-7-14T15:02:45Z
2020-07-14T13:05:01Z,42.805,6.029,13.2971,4.59977,2470.11,2020-7-14T15:05:48Z
2020-07-14T13:08:05Z,42.805,6.029,13.2974,4.59975,2470.087,2020-7-14T15:08:51Z
2020-07-14T13:11:08Z,42.805,6.029,13.2971,4.59975,2470.063,2020-7-14T15:11:55Z
2020-07-14T13:14:11Z,42.805,6.029,13.2976,4.59975,2470.077,2020-7-14T15:14:58Z
2020-07-14T13:17:14Z,42.805,6.029,13.2975,4.59976,2470.087,2020-7-14T15:18:01Z
2020-07-14T13:20:18Z,42.805,6.029,13.2972,4.59976,2470.087,2020-7-14T15:21:04Z
2020-07-14T13:23:21Z,42.805,6.029,13.2975,4.59976,2470.063,2020-7-14T15:24:08Z
2020-07-14T13:26:24Z,42.805,6.029,13.2971,4.59976,2470.133,2020-7-14T15:27:11Z
2020-07-14T13:29:28Z,42.805,6.029,13.2971,4.59976,2470.124,2020-7-14T15:30:14Z
2020-07-14T13:32:31Z,42.805,6.029,13.2971,4.59976,2470.077,2020-7-14T15:33:18Z
2020-07-14T13:35:34Z,42.805,6.029,13.2975,4.59977,2470.1,2020-7-14T15:36:21Z
2020-07-14T13:38:38Z,42.805,6.029,13.2976,4.59975,2470.1,2020-7-14T15:39:24Z
2020-07-14T13:41:41Z,42.805,6.029,13.2974,4.59976,2470.087,2020-7-14T15:42:28Z
2020-07-14T13:44:44Z,42.805,6.029,13.2976,4.59975,2470.11,2020-7-14T15:45:31Z
2020-07-14T13:47:48Z,42.805,6.029,13.2970,4.59976,2470.11,2020-7-14T15:48:34Z
2020-07-14T13:50:51Z,42.805,6.029,13.2972,4.59976,2470.053,2020-7-14T15:51:37Z
2020-07-14T13:53:54Z,42.805,6.029,13.2968,4.59975,2470.087,2020-7-14T15:54:41Z
2020-07-14T13:56:57Z,42.805,6.029,13.2973,4.59975,2470.11,2020-7-14T15:57:44Z
2020-07-14T14:00:01Z,42.805,6.029,13.2969,4.59976,2470.124,2020-7-14T16:00:47Z
2020-07-14T14:03:04Z,42.805,6.029,13.2974,4.59975,2470.087,2020-7-14T16:03:51Z
2020-07-14T14:06:07Z,42.805,6.029,13.2974,4.59975,2470.087,2020-7-14T16:06:54Z
2020-07-14T14:09:10Z,42.805,6.029,13.2972,4.59976,2470.1,2020-7-14T16:09:57Z
2020-07-14T14:12:14Z,42.805,6.029,13.2974,4.59975,2470.077,2020-7-14T16:13:00Z
2020-07-14T14:15:17Z,42.805,6.029,13.2971,4.59974,2470.073,2020-7-14T16:16:03Z
2020-07-14T14:18:20Z,42.805,6.029,13.2973,4.59976,2470.063,2020-7-14T16:19:07Z
2020-07-14T14:21:23Z,42.805,6.029,13.2974,4.59976,2470.087,2020-7-14T16:22:10Z
2020-07-14T14:24:27Z,42.805,6.029,13.2974,4.59976,2470.087,2020-7-14T16:25:13Z
2020-07-14T14:27:30Z,42.805,6.029,13.2973,4.59976,2470.087,2020-7-14T16:28:16Z
2020-07-14T14:30:33Z,42.805,6.029,13.2976,4.59974,2470.1,2020-7-14T16:31:20Z
2020-07-14T14:33:36Z,42.805,6.029,13.2976,4.59976,2470.11,2020-7-14T16:34:23Z
2020-07-14T14:36:39Z,42.805,6.029,13.2974,4.59976,2470.11,2020-7-14T16:37:26Z
2020-07-14T14:39:43Z,42.805,6.029,13.2978,4.59975,2470.063,2020-7-14T16:40:29Z
2020-07-14T14:42:46Z,42.805,6.029,13.2975,4.59976,2470.11,2020-7-14T16:43:33Z
2020-07-14T14:45:49Z,42.805,6.029,13.2976,4.59976,2470.11,2020-7-14T16:46:36Z
2020-07-14T14:48:53Z,42.805,6.029,13.2974,4.59976,2470.1,2020-7-14T16:49:39Z
2020-07-14T14:51:56Z,42.805,6.029,13.2975,4.59975,2470.11,2020-7-14T16:52:42Z
2020-07-14T14:54:59Z,42.805,6.029,13.2972,4.59976,2470.087,2020-7-14T16:55:46Z
2020-07-14T14:58:02Z,42.805,6.029,13.2974,4.59976,2470.11,2020-7-14T16:58:49Z
2020-07-14T15:01:06Z,42.805,6.029,13.2978,4.59977,2470.11,2020-7-14T17:01:52Z
2020-07-14T15:04:09Z,42.805,6.029,13.2975,4.59976,2470.11,2020-7-14T17:04:55Z
2020-07-14T15:07:12Z,42.805,6.029,13.2973,4.59976,2470.087,2020-7-14T17:07:59Z
2020-07-14T15:10:15Z,42.805,6.029,13.2975,4.59976,2470.087,2020-7-14T17:11:02Z
2020-07-14T15:13:18Z,42.805,6.029,13.2972,4.59976,2470.11,2020-7-14T17:14:05Z